Time,TemperatureF,DewpointF,PressureIn,WindDirection,WindDirectionDegrees,WindSpeedMPH,WindSpeedGustMPH,Humidity,HourlyPrecipIn,Conditions,Clouds,dailyrainin,SoftwareType,DateUTC
2013-02-09 00:00:00,26.9,22.1,30.44,ENE,76,1.0,1.0,82,0.00,,,0.00,Wunderground v.1.15,2013-02-09 05:00:00,
2013-02-09 00:05:00,26.7,22.5,30.44,NE,52,1.0,1.0,84,0.00,,,0.00,Wunderground v.1.15,2013-02-09 05:05:00,
2013-02-09 00:10:00,26.5,22.3,30.44,ENE,57,2.0,2.0,84,0.00,,,0.00,Wunderground v.1.15,2013-02-09 05:10:00,
2013-02-09 00:15:00,26.4,22.2,30.44,ENE,57,2.0,2.0,84,0.00,,,0.00,Wunderground v.1.15,2013-02-09 05:15:00,
2013-02-09 00:20:00,26.2,22.3,30.44,ENE,57,1.0,1.0,85,0.00,,,0.00,Wunderground v.1.15,2013-02-09 05:20:00,
2013-02-09 00:30:00,25.9,21.7,30.44,ENE,65,0.0,1.0,84,0.00,,,0.00,Wunderground v.1.15,2013-02-09 05:30:00,
2013-02-09 00:35:00,25.9,22.0,30.44,ENE,65,1.0,6.0,85,0.00,,,0.00,Wunderground v.1.15,2013-02-09 05:35:00,
2013-02-09 00:40:00,25.6,21.4,30.44,ENE,65,0.0,6.0,84,0.00,,,0.00,Wunderground v.1.15,2013-02-09 05:40:00,
2013-02-09 00:45:00,25.2,21.0,30.44,ENE,65,0.0,6.0,84,0.00,,,0.00,Wunderground v.1.15,2013-02-09 05:45:00,
2013-02-09 00:55:00,24.9,21.3,30.44,ENE,65,0.0,6.0,86,0.00,,,0.00,Wunderground v.1.15,2013-02-09 05:55:00,
2013-02-09 01:00:00,25.1,21.2,30.44,ENE,65,0.0,6.0,85,0.00,,,0.00,Wunderground v.1.15,2013-02-09 06:00:00,
2013-02-09 01:05:00,25.1,21.5,30.44,ENE,65,0.0,6.0,86,0.00,,,0.00,Wunderground v.1.15,2013-02-09 06:05:00,
2013-02-09 01:10:00,25.2,21.6,30.44,ENE,65,0.0,6.0,86,0.00,,,0.00,Wunderground v.1.15,2013-02-09 06:10:00,
2013-02-09 01:15:00,25.4,21.8,30.44,ENE,69,0.0,6.0,86,0.00,,,0.00,Wunderground v.1.15,2013-02-09 06:15:00,
2013-02-09 01:25:00,25.4,22.3,30.44,East,101,1.0,6.0,88,0.00,,,0.00,Wunderground v.1.15,2013-02-09 06:25:00,
2013-02-09 01:30:00,25.2,22.1,30.44,East,101,2.0,6.0,88,0.00,,,0.00,Wunderground v.1.15,2013-02-09 06:30:00,
2013-02-09 01:35:00,25.2,22.1,30.44,East,93,2.0,6.0,88,0.00,,,0.00,Wunderground v.1.15,2013-02-09 06:35:00,
2013-02-09 01:40:00,25.1,22.0,30.44,East,96,2.0,6.0,88,0.00,,,0.00,Wunderground v.1.15,2013-02-09 06:40:00,
2013-02-09 01:45:00,25.0,21.9,30.45,East,96,2.0,6.0,88,0.00,,,0.00,Wunderground v.1.15,2013-02-09 06:45:00,
2013-02-09 01:50:00,25.0,21.9,30.45,East,94,2.0,6.0,88,0.00,,,0.00,Wunderground v.1.15,2013-02-09 06:50:00,
2013-02-09 01:55:00,24.9,22.1,30.45,East,95,3.0,6.0,89,0.00,,,0.00,Wunderground v.1.15,2013-02-09 06:55:00,
2013-02-09 02:00:00,24.9,22.1,30.45,East,82,3.0,3.0,89,0.00,,,0.00,Wunderground v.1.15,2013-02-09 07:00:00,
2013-02-09 02:05:00,24.8,22.0,30.45,ENE,78,2.0,6.0,89,0.00,,,0.00,Wunderground v.1.15,2013-02-09 07:05:00,
2013-02-09 02:10:00,24.7,21.9,30.45,East,82,2.0,6.0,89,0.00,,,0.00,Wunderground v.1.15,2013-02-09 07:10:00,
2013-02-09 02:20:00,24.5,21.7,30.46,East,84,1.0,6.0,89,0.00,,,0.00,Wunderground v.1.15,2013-02-09 07:20:00,
2013-02-09 02:25:00,24.4,21.9,30.46,East,83,0.0,6.0,90,0.00,,,0.00,Wunderground v.1.15,2013-02-09 07:25:00,
2013-02-09 02:35:00,24.1,21.9,30.46,East,88,1.0,6.0,91,0.00,,,0.00,Wunderground v.1.15,2013-02-09 07:35:00,
2013-02-09 02:40:00,24.1,21.9,30.46,ENE,77,1.0,6.0,91,0.00,,,0.00,Wunderground v.1.15,2013-02-09 07:40:00,
2013-02-09 02:45:00,24.1,21.9,30.47,East,82,1.0,6.0,91,0.00,,,0.00,Wunderground v.1.15,2013-02-09 07:45:00,
2013-02-09 02:50:00,24.1,21.9,30.47,East,82,1.0,6.0,91,0.00,,,0.00,Wunderground v.1.15,2013-02-09 07:50:00,
2013-02-09 02:55:00,24.0,21.8,30.47,East,82,1.0,6.0,91,0.00,,,0.00,Wunderground v.1.15,2013-02-09 07:55:00,
2013-02-09 03:00:00,23.9,21.7,30.46,East,82,1.0,1.0,91,0.00,,,0.00,Wunderground v.1.15,2013-02-09 08:00:00,
2013-02-09 03:10:00,23.7,21.5,30.45,East,86,1.0,2.0,91,0.00,,,0.00,Wunderground v.1.15,2013-02-09 08:10:00,
2013-02-09 03:20:00,23.6,21.6,30.46,East,91,1.0,1.0,92,0.00,,,0.00,Wunderground v.1.15,2013-02-09 08:20:00,
2013-02-09 03:25:00,23.6,21.6,30.45,East,91,1.0,2.0,92,0.00,,,0.00,Wunderground v.1.15,2013-02-09 08:25:00,
2013-02-09 03:30:00,23.6,21.6,30.45,East,91,2.0,2.0,92,0.00,,,0.00,Wunderground v.1.15,2013-02-09 08:30:00,
2013-02-09 03:35:00,23.4,21.4,30.45,East,91,2.0,3.0,92,0.00,,,0.00,Wunderground v.1.15,2013-02-09 08:35:00,
2013-02-09 03:40:00,23.4,21.4,30.45,East,91,1.0,3.0,92,0.00,,,0.00,Wunderground v.1.15,2013-02-09 08:40:00,
2013-02-09 03:45:00,23.3,21.3,30.45,East,90,2.0,3.0,92,0.00,,,0.00,Wunderground v.1.15,2013-02-09 08:45:00,
2013-02-09 03:50:00,23.2,21.2,30.45,East,101,2.0,3.0,92,0.00,,,0.00,Wunderground v.1.15,2013-02-09 08:50:00,
2013-02-09 03:55:00,23.1,21.1,30.45,East,101,2.0,3.0,92,0.00,,,0.00,Wunderground v.1.15,2013-02-09 08:55:00,
2013-02-09 04:00:00,23.1,21.4,30.45,ESE,102,2.0,3.0,93,0.00,,,0.00,Wunderground v.1.15,2013-02-09 09:00:00,
2013-02-09 04:05:00,23.0,21.3,30.45,East,101,2.0,3.0,93,0.00,,,0.00,Wunderground v.1.15,2013-02-09 09:05:00,
2013-02-09 04:10:00,23.0,21.3,30.45,ESE,102,2.0,2.0,93,0.00,,,0.00,Wunderground v.1.15,2013-02-09 09:10:00,
2013-02-09 04:15:00,23.0,21.3,30.45,East,101,2.0,3.0,93,0.00,,,0.00,Wunderground v.1.15,2013-02-09 09:15:00,
2013-02-09 04:25:00,22.9,21.2,30.46,ESE,102,2.0,3.0,93,0.00,,,0.00,Wunderground v.1.15,2013-02-09 09:25:00,
2013-02-09 04:30:00,22.8,21.1,30.46,East,84,1.0,3.0,93,0.00,,,0.00,Wunderground v.1.15,2013-02-09 09:30:00,
2013-02-09 04:35:00,22.7,21.0,30.46,East,85,1.0,3.0,93,0.00,,,0.00,Wunderground v.1.15,2013-02-09 09:35:00,
2013-02-09 04:40:00,22.6,20.9,30.47,East,85,0.0,3.0,93,0.00,,,0.00,Wunderground v.1.15,2013-02-09 09:40:00,
2013-02-09 04:45:00,22.4,20.7,30.47,East,85,0.0,3.0,93,0.00,,,0.00,Wunderground v.1.15,2013-02-09 09:45:00,
2013-02-09 04:50:00,22.4,20.9,30.47,East,85,1.0,3.0,94,0.00,,,0.00,Wunderground v.1.15,2013-02-09 09:50:00,
2013-02-09 04:55:00,22.3,20.8,30.47,East,85,1.0,3.0,94,0.00,,,0.00,Wunderground v.1.15,2013-02-09 09:55:00,
2013-02-09 05:00:00,22.2,20.7,30.47,East,84,1.0,3.0,94,0.00,,,0.00,Wunderground v.1.15,2013-02-09 10:00:00,
2013-02-09 05:05:00,22.1,20.6,30.47,East,85,1.0,3.0,94,0.00,,,0.00,Wunderground v.1.15,2013-02-09 10:05:00,
2013-02-09 05:10:00,22.1,20.6,30.47,East,93,1.0,1.0,94,0.00,,,0.00,Wunderground v.1.15,2013-02-09 10:10:00,
2013-02-09 05:15:00,22.0,20.5,30.47,East,93,1.0,3.0,94,0.00,,,0.00,Wunderground v.1.15,2013-02-09 10:15:00,
2013-02-09 05:25:00,21.7,20.2,30.47,East,93,0.0,3.0,94,0.00,,,0.00,Wunderground v.1.15,2013-02-09 10:25:00,
2013-02-09 05:35:00,21.6,20.4,30.47,East,93,1.0,3.0,95,0.00,,,0.00,Wunderground v.1.15,2013-02-09 10:35:00,
2013-02-09 05:40:00,21.4,20.2,30.47,East,93,1.0,3.0,95,0.00,,,0.00,Wunderground v.1.15,2013-02-09 10:40:00,
2013-02-09 05:45:00,21.4,20.2,30.47,East,93,1.0,3.0,95,0.00,,,0.00,Wunderground v.1.15,2013-02-09 10:45:00,
2013-02-09 05:50:00,21.4,20.2,30.47,East,93,1.0,3.0,95,0.00,,,0.00,Wunderground v.1.15,2013-02-09 10:50:00,
2013-02-09 06:00:00,21.3,20.1,30.47,East,95,1.0,3.0,95,0.00,,,0.00,Wunderground v.1.15,2013-02-09 11:00:00,
2013-02-09 06:05:00,21.3,20.1,30.47,ESE,110,2.0,3.0,95,0.00,,,0.00,Wunderground v.1.15,2013-02-09 11:05:00,
2013-02-09 06:10:00,21.4,20.2,30.47,ESE,113,2.0,2.0,95,0.00,,,0.00,Wunderground v.1.15,2013-02-09 11:10:00,
2013-02-09 06:15:00,21.4,20.2,30.48,ESE,113,2.0,3.0,95,0.00,,,0.00,Wunderground v.1.15,2013-02-09 11:15:00,
2013-02-09 06:20:00,21.3,20.1,30.47,SE,127,1.0,3.0,95,0.00,,,0.00,Wunderground v.1.15,2013-02-09 11:20:00,
2013-02-09 06:30:00,21.2,20.0,30.47,SE,141,1.0,1.0,95,0.00,,,0.00,Wunderground v.1.15,2013-02-09 11:30:00,
2013-02-09 06:35:00,21.1,19.9,30.47,SE,137,1.0,3.0,95,0.00,,,0.00,Wunderground v.1.15,2013-02-09 11:35:00,
2013-02-09 06:40:00,20.9,19.7,30.47,SE,136,1.0,3.0,95,0.00,,,0.00,Wunderground v.1.15,2013-02-09 11:40:00,
2013-02-09 06:45:00,20.9,19.7,30.47,SSE,148,1.0,3.0,95,0.00,,,0.00,Wunderground v.1.15,2013-02-09 11:45:00,
2013-02-09 06:50:00,20.9,19.7,30.47,SSE,166,1.0,3.0,95,0.00,,,0.00,Wunderground v.1.15,2013-02-09 11:50:00,
2013-02-09 06:55:00,21.0,19.8,30.47,SE,131,2.0,3.0,95,0.00,,,0.00,Wunderground v.1.15,2013-02-09 11:55:00,
2013-02-09 07:00:00,21.1,19.9,30.47,SSW,210,2.0,2.0,95,0.00,,,0.00,Wunderground v.1.15,2013-02-09 12:00:00,
2013-02-09 07:10:00,21.3,19.6,30.48,SSE,158,2.0,2.0,93,0.00,,,0.00,Wunderground v.1.15,2013-02-09 12:10:00,
2013-02-09 07:20:00,21.3,18.8,30.47,SE,134,4.0,4.0,90,0.00,,,0.00,Wunderground v.1.15,2013-02-09 12:20:00,
2013-02-09 07:25:00,21.3,18.8,30.48,SSW,193,4.0,4.0,90,0.00,,,0.00,Wunderground v.1.15,2013-02-09 12:25:00,
2013-02-09 07:30:00,21.2,18.5,30.49,SW,236,4.0,4.0,89,0.00,,,0.00,Wunderground v.1.15,2013-02-09 12:30:00,
2013-02-09 07:40:00,21.0,18.3,30.50,WSW,240,5.0,6.0,89,0.00,,,0.00,Wunderground v.1.15,2013-02-09 12:40:00,
2013-02-09 07:45:00,20.9,17.9,30.49,WSW,239,5.0,6.0,88,0.00,,,0.00,Wunderground v.1.15,2013-02-09 12:45:00,
2013-02-09 07:50:00,20.8,17.8,30.50,WSW,246,5.0,5.0,88,0.00,,,0.00,Wunderground v.1.15,2013-02-09 12:50:00,
2013-02-09 07:55:00,20.8,17.8,30.50,WSW,243,5.0,5.0,88,0.00,,,0.00,Wunderground v.1.15,2013-02-09 12:55:00,
2013-02-09 08:00:00,20.9,17.9,30.50,WSW,242,5.0,5.0,88,0.00,,,0.00,Wunderground v.1.15,2013-02-09 13:00:00,
2013-02-09 08:05:00,21.0,18.0,30.50,WSW,239,5.0,5.0,88,0.00,,,0.00,Wunderground v.1.15,2013-02-09 13:05:00,
2013-02-09 08:15:00,21.2,18.2,30.50,WSW,240,5.0,5.0,88,0.00,,,0.00,Wunderground v.1.15,2013-02-09 13:15:00,
2013-02-09 08:25:00,21.6,18.3,30.50,WSW,239,4.0,5.0,87,0.00,,,0.00,Wunderground v.1.15,2013-02-09 13:25:00,
2013-02-09 08:30:00,21.8,18.5,30.50,WSW,238,5.0,5.0,87,0.00,,,0.00,Wunderground v.1.15,2013-02-09 13:30:00,
2013-02-09 08:35:00,22.0,18.5,30.50,WSW,243,5.0,5.0,86,0.00,,,0.00,Wunderground v.1.15,2013-02-09 13:35:00,
2013-02-09 08:40:00,22.1,18.6,30.50,SW,236,5.0,5.0,86,0.00,,,0.00,Wunderground v.1.15,2013-02-09 13:40:00,
2013-02-09 08:50:00,22.4,18.6,30.50,SW,235,6.0,8.0,85,0.00,,,0.00,Wunderground v.1.15,2013-02-09 13:50:00,
2013-02-09 08:55:00,22.7,18.9,30.50,WSW,243,7.0,10.0,85,0.00,,,0.00,Wunderground v.1.15,2013-02-09 13:55:00,
2013-02-09 09:00:00,22.9,18.8,30.50,WSW,240,6.0,6.0,84,0.00,,,0.00,Wunderground v.1.15,2013-02-09 14:00:00,
2013-02-09 09:05:00,23.1,19.0,30.50,SW,231,6.0,7.0,84,0.00,,,0.00,Wunderground v.1.15,2013-02-09 14:05:00,
2013-02-09 09:10:00,23.2,18.8,30.50,SW,235,7.0,10.0,83,0.00,,,0.00,Wunderground v.1.15,2013-02-09 14:10:00,
2013-02-09 09:20:00,23.6,19.2,30.50,WSW,248,7.0,8.0,83,0.00,,,0.00,Wunderground v.1.15,2013-02-09 14:20:00,
2013-02-09 09:25:00,23.7,19.0,30.50,SW,233,7.0,8.0,82,0.00,,,0.00,Wunderground v.1.15,2013-02-09 14:25:00,
2013-02-09 09:35:00,24.3,19.6,30.50,SW,229,6.0,8.0,82,0.00,,,0.00,Wunderground v.1.15,2013-02-09 14:35:00,
2013-02-09 09:40:00,24.7,20.0,30.50,WSW,237,5.0,5.0,82,0.00,,,0.00,Wunderground v.1.15,2013-02-09 14:40:00,
2013-02-09 09:45:00,24.7,19.4,30.50,SW,232,6.0,6.0,80,0.00,,,0.00,Wunderground v.1.15,2013-02-09 14:45:00,
2013-02-09 09:55:00,24.8,19.5,30.50,SW,231,9.0,10.0,80,0.00,,,0.00,Wunderground v.1.15,2013-02-09 14:55:00,
2013-02-09 10:00:00,25.1,19.8,30.50,SW,236,8.0,8.0,80,0.00,,,0.00,Wunderground v.1.15,2013-02-09 15:00:00,
2013-02-09 10:10:00,25.7,20.4,30.49,WSW,239,6.0,7.0,80,0.00,,,0.00,Wunderground v.1.15,2013-02-09 15:10:00,
2013-02-09 10:15:00,25.9,20.3,30.49,WSW,243,6.0,10.0,79,0.00,,,0.00,Wunderground v.1.15,2013-02-09 15:15:00,
2013-02-09 10:25:00,26.3,20.4,30.49,WSW,243,7.0,8.0,78,0.00,,,0.00,Wunderground v.1.15,2013-02-09 15:25:00,
2013-02-09 10:35:00,26.9,21.0,30.49,SW,223,6.0,12.0,78,0.00,,,0.00,Wunderground v.1.15,2013-02-09 15:35:00,
2013-02-09 10:40:00,27.2,21.2,30.49,South,179,7.0,7.0,78,0.00,,,0.00,Wunderground v.1.15,2013-02-09 15:40:00,
2013-02-09 10:45:00,27.3,21.0,30.48,South,175,7.0,12.0,77,0.00,,,0.00,Wunderground v.1.15,2013-02-09 15:45:00,
2013-02-09 10:50:00,27.6,21.6,30.49,WSW,244,7.0,12.0,78,0.00,,,0.00,Wunderground v.1.15,2013-02-09 15:50:00,
2013-02-09 10:55:00,27.6,21.3,30.49,WSW,245,7.0,12.0,77,0.00,,,0.00,Wunderground v.1.15,2013-02-09 15:55:00,
2013-02-09 11:05:00,28.2,21.9,30.48,SW,224,6.0,12.0,77,0.00,,,0.00,Wunderground v.1.15,2013-02-09 16:05:00,
2013-02-09 11:10:00,28.3,21.7,30.48,WSW,243,7.0,12.0,76,0.00,,,0.00,Wunderground v.1.15,2013-02-09 16:10:00,
2013-02-09 11:15:00,28.7,22.7,30.48,WSW,242,8.0,12.0,78,0.00,,,0.00,Wunderground v.1.15,2013-02-09 16:15:00,
2013-02-09 11:20:00,28.8,22.5,30.48,WSW,245,9.0,12.0,77,0.00,,,0.00,Wunderground v.1.15,2013-02-09 16:20:00,
2013-02-09 11:30:00,29.3,22.7,30.48,WSW,238,6.0,6.0,76,0.00,,,0.00,Wunderground v.1.15,2013-02-09 16:30:00,
2013-02-09 11:40:00,29.4,22.8,30.49,WSW,243,7.0,7.0,76,0.00,,,0.00,Wunderground v.1.15,2013-02-09 16:40:00,
2013-02-09 11:45:00,29.3,22.4,30.48,WSW,249,6.0,9.0,75,0.00,,,0.00,Wunderground v.1.15,2013-02-09 16:45:00,
2013-02-09 11:50:00,29.6,23.3,30.49,WSW,247,7.0,12.0,77,0.00,,,0.00,Wunderground v.1.15,2013-02-09 16:50:00,
2013-02-09 12:00:00,29.9,22.9,30.49,SSE,167,7.0,7.0,75,0.00,,,0.00,Wunderground v.1.15,2013-02-09 17:00:00,
2013-02-09 12:10:00,30.2,23.2,30.48,WSW,255,9.0,9.0,75,0.00,,,0.00,Wunderground v.1.15,2013-02-09 17:10:00,
2013-02-09 12:20:00,29.8,22.8,30.48,SW,221,8.0,8.0,75,0.00,,,0.00,Wunderground v.1.15,2013-02-09 17:20:00,
2013-02-09 12:25:00,30.3,23.3,30.47,SW,229,8.0,8.0,75,0.00,,,0.00,Wunderground v.1.15,2013-02-09 17:25:00,
2013-02-09 12:35:00,30.5,23.5,30.47,WSW,250,8.0,13.0,75,0.00,,,0.00,Wunderground v.1.15,2013-02-09 17:35:00,
2013-02-09 12:40:00,30.6,23.6,30.46,WSW,246,9.0,15.0,75,0.00,,,0.00,Wunderground v.1.15,2013-02-09 17:40:00,
2013-02-09 12:50:00,31.1,24.4,30.46,SW,229,8.0,8.0,76,0.00,,,0.00,Wunderground v.1.15,2013-02-09 17:50:00,
2013-02-09 12:55:00,31.4,24.1,30.45,West,262,8.0,11.0,74,0.00,,,0.00,Wunderground v.1.15,2013-02-09 17:55:00,
2013-02-09 13:00:00,31.3,23.6,30.45,West,278,8.0,15.0,73,0.00,,,0.00,Wunderground v.1.15,2013-02-09 18:00:00,
2013-02-09 13:10:00,31.4,24.1,30.45,West,264,8.0,15.0,74,0.00,,,0.00,Wunderground v.1.15,2013-02-09 18:10:00,
2013-02-09 13:15:00,31.7,24.7,30.45,SW,229,8.0,15.0,75,0.00,,,0.00,Wunderground v.1.15,2013-02-09 18:15:00,
2013-02-09 13:20:00,31.8,23.8,30.45,WSW,248,8.0,15.0,72,0.00,,,0.00,Wunderground v.1.15,2013-02-09 18:20:00,
2013-02-09 13:30:00,31.5,23.8,30.44,West,267,10.0,15.0,73,0.00,,,0.00,Wunderground v.1.15,2013-02-09 18:30:00,
2013-02-09 13:35:00,31.6,23.6,30.44,WSW,257,10.0,16.0,72,0.00,,,0.00,Wunderground v.1.15,2013-02-09 18:35:00,
2013-02-09 13:40:00,31.7,24.0,30.43,West,274,10.0,10.0,73,0.00,,,0.00,Wunderground v.1.15,2013-02-09 18:40:00,
2013-02-09 13:50:00,32.1,24.7,30.43,WSW,253,9.0,15.0,74,0.00,,,0.00,Wunderground v.1.15,2013-02-09 18:50:00,
2013-02-09 13:55:00,32.0,24.0,30.43,WSW,252,11.0,15.0,72,0.00,,,0.00,Wunderground v.1.15,2013-02-09 18:55:00,
2013-02-09 14:00:00,32.1,24.4,30.42,WSW,255,10.0,12.0,73,0.00,,,0.00,Wunderground v.1.15,2013-02-09 19:00:00,
2013-02-09 14:10:00,32.3,24.9,30.41,WSW,242,11.0,12.0,74,0.00,,,0.00,Wunderground v.1.15,2013-02-09 19:10:00,
2013-02-09 14:20:00,32.3,24.6,30.41,West,265,11.0,11.0,73,0.00,,,0.00,Wunderground v.1.15,2013-02-09 19:20:00,
2013-02-09 14:25:00,32.4,24.7,30.40,WSW,238,10.0,11.0,73,0.00,,,0.00,Wunderground v.1.15,2013-02-09 19:25:00,
2013-02-09 14:35:00,33.0,24.6,30.40,SW,235,8.0,14.0,71,0.00,,,0.00,Wunderground v.1.15,2013-02-09 19:35:00,
2013-02-09 14:40:00,33.0,24.6,30.39,SW,215,8.0,8.0,71,0.00,,,0.00,Wunderground v.1.15,2013-02-09 19:40:00,
2013-02-09 14:45:00,33.0,25.0,30.39,WSW,246,9.0,9.0,72,0.00,,,0.00,Wunderground v.1.15,2013-02-09 19:45:00,
2013-02-09 14:55:00,33.0,24.3,30.39,WSW,250,10.0,14.0,70,0.00,,,0.00,Wunderground v.1.15,2013-02-09 19:55:00,
2013-02-09 15:00:00,33.0,23.9,30.39,WSW,245,13.0,13.0,69,0.00,,,0.00,Wunderground v.1.15,2013-02-09 20:00:00,
2013-02-09 15:10:00,33.6,25.2,30.39,SW,214,9.0,9.0,71,0.00,,,0.00,Wunderground v.1.15,2013-02-09 20:10:00,
2013-02-09 15:15:00,34.1,26.0,30.38,SW,218,7.0,14.0,72,0.00,,,0.00,Wunderground v.1.15,2013-02-09 20:15:00,
2013-02-09 15:20:00,34.3,25.9,30.38,WSW,250,7.0,14.0,71,0.00,,,0.00,Wunderground v.1.15,2013-02-09 20:20:00,
2013-02-09 15:30:00,33.7,25.6,30.38,WSW,243,7.0,7.0,72,0.00,,,0.00,Wunderground v.1.15,2013-02-09 20:30:00,
2013-02-09 15:35:00,33.9,25.5,30.38,South,183,6.0,14.0,71,0.00,,,0.00,Wunderground v.1.15,2013-02-09 20:35:00,
2013-02-09 15:45:00,33.5,25.1,30.38,WSW,242,8.0,14.0,71,0.00,,,0.00,Wunderground v.1.15,2013-02-09 20:45:00,
2013-02-09 15:50:00,33.3,25.2,30.38,WSW,237,11.0,11.0,72,0.00,,,0.00,Wunderground v.1.15,2013-02-09 20:50:00,
2013-02-09 16:00:00,33.6,25.2,30.38,WSW,243,9.0,9.0,71,0.00,,,0.00,Wunderground v.1.15,2013-02-09 21:00:00,
2013-02-09 16:10:00,33.7,25.6,30.38,WSW,241,10.0,12.0,72,0.00,,,0.00,Wunderground v.1.15,2013-02-09 21:10:00,
2013-02-09 16:15:00,33.6,25.2,30.38,SW,214,11.0,12.0,71,0.00,,,0.00,Wunderground v.1.15,2013-02-09 21:15:00,
2013-02-09 16:20:00,33.7,25.3,30.38,WSW,242,12.0,12.0,71,0.00,,,0.00,Wunderground v.1.15,2013-02-09 21:20:00,
2013-02-09 16:30:00,34.0,25.9,30.38,WSW,245,9.0,10.0,72,0.00,,,0.00,Wunderground v.1.15,2013-02-09 21:30:00,
2013-02-09 16:35:00,34.2,25.8,30.38,WSW,248,8.0,14.0,71,0.00,,,0.00,Wunderground v.1.15,2013-02-09 21:35:00,
2013-02-09 16:40:00,34.3,26.2,30.38,WSW,249,8.0,14.0,72,0.00,,,0.00,Wunderground v.1.15,2013-02-09 21:40:00,
2013-02-09 16:50:00,34.2,25.1,30.37,WSW,252,10.0,14.0,69,0.00,,,0.00,Wunderground v.1.15,2013-02-09 21:50:00,
2013-02-09 16:55:00,34.3,26.2,30.38,WSW,242,10.0,14.0,72,0.00,,,0.00,Wunderground v.1.15,2013-02-09 21:55:00,
2013-02-09 17:05:00,34.0,25.9,30.37,WSW,242,10.0,10.0,72,0.00,,,0.00,Wunderground v.1.15,2013-02-09 22:05:00,
2013-02-09 17:10:00,34.0,25.9,30.36,WSW,246,10.0,14.0,72,0.00,,,0.00,Wunderground v.1.15,2013-02-09 22:10:00,
2013-02-09 17:15:00,34.1,26.0,30.37,WSW,249,9.0,14.0,72,0.00,,,0.00,Wunderground v.1.15,2013-02-09 22:15:00,
2013-02-09 17:25:00,34.0,25.9,30.37,WSW,246,8.0,14.0,72,0.00,,,0.00,Wunderground v.1.15,2013-02-09 22:25:00,
2013-02-09 17:30:00,33.9,25.8,30.36,WSW,243,8.0,14.0,72,0.00,,,0.00,Wunderground v.1.15,2013-02-09 22:30:00,
2013-02-09 17:40:00,33.4,25.7,30.36,WSW,245,8.0,14.0,73,0.00,,,0.00,Wunderground v.1.15,2013-02-09 22:40:00,
2013-02-09 17:45:00,33.3,25.6,30.36,WSW,242,8.0,14.0,73,0.00,,,0.00,Wunderground v.1.15,2013-02-09 22:45:00,
2013-02-09 17:55:00,33.0,25.6,30.35,SW,233,5.0,14.0,74,0.00,,,0.00,Wunderground v.1.15,2013-02-09 22:55:00,
2013-02-09 18:00:00,32.8,25.7,30.35,SW,214,5.0,5.0,75,0.00,,,0.00,Wunderground v.1.15,2013-02-09 23:00:00,
2013-02-09 18:10:00,32.3,25.6,30.34,SW,235,5.0,7.0,76,0.00,,,0.00,Wunderground v.1.15,2013-02-09 23:10:00,
2013-02-09 18:15:00,32.2,25.5,30.34,SE,143,6.0,7.0,76,0.00,,,0.00,Wunderground v.1.15,2013-02-09 23:15:00,
2013-02-09 18:25:00,31.8,25.1,30.34,South,179,4.0,5.0,76,0.00,,,0.00,Wunderground v.1.15,2013-02-09 23:25:00,
2013-02-09 18:30:00,31.8,25.1,30.34,WSW,242,5.0,5.0,76,0.00,,,0.00,Wunderground v.1.15,2013-02-09 23:30:00,
2013-02-09 18:35:00,31.6,24.9,30.34,SW,214,5.0,14.0,76,0.00,,,0.00,Wunderground v.1.15,2013-02-09 23:35:00,
2013-02-09 18:40:00,31.5,25.1,30.34,SW,231,5.0,14.0,77,0.00,,,0.00,Wunderground v.1.15,2013-02-09 23:40:00,
2013-02-09 18:50:00,31.3,24.9,30.34,SW,220,4.0,14.0,77,0.00,,,0.00,Wunderground v.1.15,2013-02-09 23:50:00,
2013-02-09 18:55:00,31.2,24.8,30.34,SW,215,4.0,14.0,77,0.00,,,0.00,Wunderground v.1.15,2013-02-09 23:55:00,
2013-02-09 19:05:00,31.1,25.0,30.34,SSW,212,6.0,14.0,78,0.00,,,0.00,Wunderground v.1.15,2013-02-10 00:05:00,
2013-02-09 19:10:00,30.9,24.8,30.34,SW,217,6.0,14.0,78,0.00,,,0.00,Wunderground v.1.15,2013-02-10 00:10:00,
2013-02-09 19:15:00,30.8,24.7,30.33,SSW,210,6.0,14.0,78,0.00,,,0.00,Wunderground v.1.15,2013-02-10 00:15:00,
2013-02-09 19:25:00,30.6,24.9,30.33,SW,226,7.0,14.0,79,0.00,,,0.00,Wunderground v.1.15,2013-02-10 00:25:00,
2013-02-09 19:30:00,30.6,24.9,30.33,SW,218,6.0,14.0,79,0.00,,,0.00,Wunderground v.1.15,2013-02-10 00:30:00,
2013-02-09 19:40:00,30.5,24.8,30.33,SW,226,5.0,14.0,79,0.00,,,0.00,Wunderground v.1.15,2013-02-10 00:40:00,
2013-02-09 19:45:00,30.5,24.8,30.33,South,179,6.0,14.0,79,0.00,,,0.00,Wunderground v.1.15,2013-02-10 00:45:00,
2013-02-09 19:50:00,30.4,25.0,30.33,South,190,6.0,6.0,80,0.00,,,0.00,Wunderground v.1.15,2013-02-10 00:50:00,
2013-02-09 20:00:00,30.4,25.0,30.34,SSW,195,6.0,6.0,80,0.00,,,0.00,Wunderground v.1.15,2013-02-10 01:00:00,
2013-02-09 20:10:00,30.3,24.9,30.34,SSW,207,5.0,5.0,80,0.00,,,0.00,Wunderground v.1.15,2013-02-10 01:10:00,
2013-02-09 20:15:00,30.3,24.9,30.34,SW,221,4.0,5.0,80,0.00,,,0.00,Wunderground v.1.15,2013-02-10 01:15:00,
2013-02-09 20:25:00,30.3,24.9,30.34,SW,218,5.0,5.0,80,0.00,,,0.00,Wunderground v.1.15,2013-02-10 01:25:00,
2013-02-09 20:30:00,30.3,24.9,30.33,SW,214,5.0,5.0,80,0.00,,,0.00,Wunderground v.1.15,2013-02-10 01:30:00,
2013-02-09 20:35:00,30.3,24.9,30.33,SSE,153,5.0,13.0,80,0.00,,,0.00,Wunderground v.1.15,2013-02-10 01:35:00,
2013-02-09 20:45:00,30.2,25.1,30.32,SW,236,6.0,13.0,81,0.00,,,0.00,Wunderground v.1.15,2013-02-10 01:45:00,
2013-02-09 20:50:00,30.1,25.0,30.32,SW,215,6.0,6.0,81,0.00,,,0.00,Wunderground v.1.15,2013-02-10 01:50:00,
2013-02-09 20:55:00,30.0,24.9,30.32,SW,235,5.0,13.0,81,0.00,,,0.00,Wunderground v.1.15,2013-02-10 01:55:00,
2013-02-09 21:05:00,29.9,24.8,30.32,SW,228,5.0,13.0,81,0.00,,,0.00,Wunderground v.1.15,2013-02-10 02:05:00,
2013-02-09 21:10:00,29.9,24.8,30.32,SSW,210,5.0,13.0,81,0.00,,,0.00,Wunderground v.1.15,2013-02-10 02:10:00,
2013-02-09 21:20:00,29.9,25.1,30.31,SW,236,6.0,6.0,82,0.00,,,0.00,Wunderground v.1.15,2013-02-10 02:20:00,
2013-02-09 21:25:00,29.9,24.8,30.31,WSW,244,6.0,13.0,81,0.00,,,0.00,Wunderground v.1.15,2013-02-10 02:25:00,
2013-02-09 21:30:00,30.0,24.9,30.31,SW,236,6.0,6.0,81,0.00,,,0.00,Wunderground v.1.15,2013-02-10 02:30:00,
2013-02-09 21:40:00,30.2,25.1,30.32,SW,218,7.0,7.0,81,0.00,,,0.00,Wunderground v.1.15,2013-02-10 02:40:00,
2013-02-09 21:45:00,30.3,25.2,30.32,WSW,244,7.0,13.0,81,0.00,,,0.00,Wunderground v.1.15,2013-02-10 02:45:00,
2013-02-09 21:50:00,30.4,25.0,30.32,SW,229,7.0,13.0,80,0.00,,,0.00,Wunderground v.1.15,2013-02-10 02:50:00,
2013-02-09 22:00:00,30.6,25.2,30.32,WSW,245,9.0,9.0,80,0.00,,,0.00,Wunderground v.1.15,2013-02-10 03:00:00,
2013-02-09 22:10:00,30.9,25.2,30.32,WSW,244,9.0,10.0,79,0.00,,,0.00,Wunderground v.1.15,2013-02-10 03:10:00,
2013-02-09 22:15:00,31.0,24.9,30.31,WSW,240,9.0,12.0,78,0.00,,,0.00,Wunderground v.1.15,2013-02-10 03:15:00,
2013-02-09 22:20:00,31.0,24.9,30.31,WSW,253,8.0,8.0,78,0.00,,,0.00,Wunderground v.1.15,2013-02-10 03:20:00,
2013-02-09 22:30:00,31.0,24.6,30.30,WSW,245,8.0,11.0,77,0.00,,,0.00,Wunderground v.1.15,2013-02-10 03:30:00,
2013-02-09 22:35:00,30.9,24.8,30.30,WSW,243,8.0,13.0,78,0.00,,,0.00,Wunderground v.1.15,2013-02-10 03:35:00,
2013-02-09 22:40:00,31.0,24.6,30.30,WSW,246,8.0,13.0,77,0.00,,,0.00,Wunderground v.1.15,2013-02-10 03:40:00,
2013-02-09 22:50:00,31.1,24.4,30.29,WSW,239,8.0,13.0,76,0.00,,,0.00,Wunderground v.1.15,2013-02-10 03:50:00,
2013-02-09 22:55:00,31.2,24.5,30.29,WSW,245,9.0,13.0,76,0.00,,,0.00,Wunderground v.1.15,2013-02-10 03:55:00,
2013-02-09 23:05:00,31.3,24.3,30.28,WSW,240,9.0,13.0,75,0.00,,,0.00,Wunderground v.1.15,2013-02-10 04:05:00,
2013-02-09 23:10:00,31.4,24.4,30.28,WSW,245,9.0,14.0,75,0.00,,,0.00,Wunderground v.1.15,2013-02-10 04:10:00,
2013-02-09 23:20:00,31.3,24.3,30.28,WSW,245,10.0,13.0,75,0.00,,,0.00,Wunderground v.1.15,2013-02-10 04:20:00,
2013-02-09 23:25:00,31.4,24.4,30.28,WSW,249,9.0,13.0,75,0.00,,,0.00,Wunderground v.1.15,2013-02-10 04:25:00,
2013-02-09 23:35:00,31.3,24.3,30.28,WSW,238,9.0,13.0,75,0.00,,,0.00,Wunderground v.1.15,2013-02-10 04:35:00,
2013-02-09 23:40:00,31.3,24.3,30.27,SW,233,7.0,7.0,75,0.00,,,0.00,Wunderground v.1.15,2013-02-10 04:40:00,
2013-02-09 23:50:00,31.1,24.1,30.27,SW,236,7.0,13.0,75,0.00,,,0.00,Wunderground v.1.15,2013-02-10 04:50:00,
2013-02-09 23:55:00,31.0,24.3,30.27,WSW,240,8.0,13.0,76,0.00,,,0.00,Wunderground v.1.15,2013-02-10 04:55:00,